Location: Santaluz Observatory
(32.9930°N, 117.1510°W)
Time: 18:50:16
(UTC-07:00)

Daily predictions for brighter satellites

Satellite Brightness Start Highest point End
(mag) Time Altitude Azimuth Time Altitude Azimuth Time Altitude Azimuth
Cosmos 1980 Rocket 3.0 19:29:30 10° SSE 19:34:13 28° ESE 19:38:58 10° NE
Cosmos 1656 3.7 19:34:01 10° SSW 19:39:37 79° ESE 19:45:12 10° NNE
ALOS 3.3 19:37:14 10° SE 19:41:09 27° ENE 19:45:04 10° NNE
H-2A R/B 4.3 19:38:35 10° ESE 19:41:19 18° ENE 19:44:03 10° NNE
Spot 2 Rocket 3.5 19:38:31 10° SSE 19:43:33 68° ENE 19:48:36 10° N
Meteor 2-4 Rocket 4.4 19:38:01 10° NNW 19:43:51 65° W 19:49:41 10° S
Resurs 1-3 3.9 19:40:09 10° SSE 19:44:21 48° ENE 19:48:35 10° N
Meteor 1-28 Rocket 4.2 19:40:58 10° N 19:44:39 52° WNW 19:48:19 10° SSW
NOAA 12 4.3 19:40:58 10° S 19:46:11 80° WSW 19:51:26 10° NNW
Tiangong 1 2.9 19:47:51 10° NW 19:50:20 21° NNE 19:52:49 10° ENE
RESURS DK-1 3.8 19:47:36 10° N 19:50:46 21° ENE 19:53:33 12° ESE
OAO 2 Rocket 3.5 19:47:06 10° W 19:52:03 71° N 19:56:54 11° E
FREGAT/IRIS 3.9 19:52:30 10° S 19:55:30 45° W 19:58:32 10° NNW
Cosmos 1500 3.6 19:54:35 10° SSE 19:58:06 39° E 20:01:39 10° NNE
Helios 1A 3.0 19:54:21 10° SSE 19:58:31 84° W 20:02:43 10° NNW
Cosmos 2123 Rocket 4.0 19:55:25 10° N 20:01:37 88° E 20:07:49 10° S
Cosmos 1461 4.3 19:58:25 10° NW 20:02:05 35° WSW 20:05:39 10° S
Myojo/LAPS 3.5 20:02:49 10° WSW 20:05:16 32° S 20:06:32 19° SE
CZ-2D R/B 3.6 20:05:31 10° SSE 20:09:11 44° ENE 20:12:55 10° N
Cosmos 2322 Rocket 3.3 20:05:52 10° SE 20:09:51 20° E 20:13:49 10° NE
Cosmos 2227 Rocket 2.9 20:05:11 10° NNW 20:10:43 57° WSW 20:16:13 10° S
ERS-1 Rocket 4.4 20:09:01 16° E 20:10:54 19° ENE 20:14:23 10° NNE
Cosmos 2298 Rocket 4.1 20:06:06 10° N 20:11:22 60° ENE 20:16:37 10° SSE
Cosmos 1975 3.3 20:10:50 10° SSW 20:14:53 67° W 20:18:59 10° N
Resurs 01 Rocket 2.6 20:11:53 10° S 20:16:10 50° W 20:20:30 10° NNW
Lacrosse 5 rocket 2.7 20:16:28 10° WNW 20:19:42 30° WSW 20:22:51 10° S
Cosmos 1763 Rocket 3.4 20:17:40 10° S 20:22:39 56° ESE 20:27:36 10° NNE
Cosmos 2297 Rocket 2.7 20:19:39 10° NNW 20:25:13 61° WSW 20:30:46 10° S
Cosmos 1515 3.6 20:23:47 10° N 20:27:37 84° E 20:31:02 13° S
EO 1 Delta rocket 4.4 20:23:42 10° N 20:28:44 75° W 20:34:55 10° SSW
Cosmos 2360 4.1 20:26:32 10° S 20:32:11 67° ESE 20:37:52 10° NNE
Cosmos 2084 3.9 20:31:04 10° NW 20:35:09 58° WSW 20:38:05 19° SSE
Cosmos 2150 Rocket 3.9 20:30:41 10° NNW 20:35:51 90° WNW 20:39:57 17° SSE
Cosmos 1825 Rocket 3.9 20:33:43 10° N 20:37:53 41° E 20:38:42 37° ESE
Cosmos 1898 Rocket 3.7 20:37:36 10° NNW 20:42:52 73° WSW 20:47:08 15° S
OTV 4 3.2 20:42:33 10° SW 20:43:11 10° SW 20:43:47 10° SSW
Cosmos 1743 2.7 20:41:11 10° S 20:45:05 88° W 20:49:01 10° N
H-2A R/B 3.9 20:49:18 17° NE 20:49:18 17° NE 20:50:57 10° NNE
Cosmos 841 Rocket 3.4 20:43:39 10° SSW 20:48:53 90° SW 20:54:07 10° NNE
Meteor 1-21 4.4 20:43:21 10° N 20:49:00 52° E 20:51:01 36° SE
Cosmos 1802 Rocket 3.9 20:43:06 10° S 20:49:28 76° E 20:55:54 10° N
Cosmos 1953 Rocket 4.0 20:46:41 10° N 20:50:51 43° ENE 20:50:51 43° ENE
Cosmos 2016 Rocket 3.9 20:45:16 10° S 20:51:17 64° E 20:57:24 10° NNE
USA 186 3.0 20:56:23 31° SW 20:57:00 36° W 20:59:39 10° NNW
CZ-3C R/B 3.7 20:08:12 10° W 20:57:38 44° SSW 21:02:33 26° SSE
Cosmos 1939 Rocket 3.5 20:58:21 41° NE 20:58:21 41° NE 21:01:44 10° N
Cosmos 2098 Rocket 4.0 20:54:30 20° SSE 20:59:11 56° E 21:04:45 10° NNE
Milstar 3 Cent rocket 4.5 20:34:10 10° W 20:59:38 70° SSW 21:06:48 33° ESE
Cosmos 2173 Rocket 4.2 20:56:31 10° SSW 21:02:51 73° W 21:09:11 10° N
SJ-11-01 4.1 21:03:11 61° SE 21:03:57 76° ENE 21:08:37 10° N
DELTA 2 R/B (1) 4.1 21:00:17 10° WNW 21:05:37 47° SSW 21:06:57 39° S
Lacrosse 5 2.3 21:03:11 10° NW 21:08:08 56° SW 21:09:26 43° S
SL-16 R/B 2.0 21:03:19 10° S 21:08:55 69° ESE 21:14:33 10° NNE
Cosmos 1758 Rocket 4.0 21:04:44 10° N 21:08:06 47° NE 21:08:06 47° NE
Cosmos 1375 Rocket 4.5 21:04:17 10° SSW 21:10:51 89° ESE 21:17:29 10° NNE
YAOGAN 11 4.1 21:13:22 74° SSW 21:13:42 82° WSW 21:18:11 10° NNW
SPOT 5 4.0 21:15:53 31° NE 21:15:53 31° NE 21:18:57 10° N
Cosmos 967 Rocket 4.3 21:08:30 10° NNW 21:14:51 86° ENE 21:16:23 54° SSE
Cosmos 1980 Rocket 3.9 21:12:59 10° SW 21:18:02 33° WNW 21:23:08 10° N
ALOS 4.4 21:14:48 10° SSW 21:18:30 23° W 21:22:13 10° NW
Cosmos 1864 Rocket 4.3 21:19:09 57° SSE 21:20:20 72° E 21:26:26 10° N
Cosmos 1666 4.2 21:23:53 30° N 21:23:53 30° N 21:25:58 10° N
Tiangong 1 3.8 21:23:57 10° WNW 21:25:01 19° WNW 21:25:01 19° WNW
RESURS DK-1 4.2 21:25:21 10° NW 21:28:45 25° WSW 21:29:31 23° WSW
Centaur AC-125 4.0 21:14:13 10° W 21:30:32 48° SSW 21:31:02 47° S
Envisat 3.0 21:33:04 78° WNW 21:33:04 78° WNW 21:37:58 10° NNW
Cosmos 2058 Rocket 3.9 21:36:37 51° WNW 21:36:37 51° WNW 21:40:44 10° N
OAO 2 Rocket 3.9 21:31:56 10° W 21:35:52 52° WSW 21:35:52 52° WSW
Tsikada Rocket 3.9 21:36:58 10° N 21:43:16 83° NE 21:43:16 83° NE
Cosmos 2263 Rocket 3.5 21:40:29 10° N 21:43:45 29° NNE 21:43:45 29° NNE
ERS-1 Rocket 4.0 21:49:01 39° WSW 21:49:20 40° W 21:54:02 10° NNW
Cosmos 2322 Rocket 3.2 21:48:11 10° SW 21:53:28 43° WNW 21:58:49 10° N
Cosmos 1725 Rocket 4.4 21:52:15 42° SW 21:54:02 57° W 22:00:11 10° N
H-2A R/B 4.4 22:15:46 14° N 22:15:46 14° N 22:16:30 10° N
